HEAXHEAT

Guest
Details From HEAX - Alexandria Intl
To HEAT - Asyut Intl
Flight Number -
Tags Generated
Created
Modified
Stats Distance 255 nm / 472 km
Max Altitude 0 ft / 0 m
Waypoints 2
Social Downloads 1
Likes 0
Share VATSIM

Download

Looking for another format? Having issues loading an existing format? Contact us
Advertisement - Login to hide

Notes

Generated

Route

HEAX HEAT

ID Type Via Altitude Latitude Longitude Leg Dist Tot Dist Heading (true) Name
O HEAX APT - 0 ft / 0 m 31.19388˚ 29.94890˚ - 0 nm - -
O HEAT APT - 0 ft / 0 m 27.05523˚ 31.00030˚ 254 nm 254 nm 167° / 168° -

Altitude Profile

Advertisement - Login to hide

Weather


0- 5 10 15 20 25 30 35+ Temperature / ° C

Clouds and Precipitation
Forecast for 2018-05-24 06:00 UTC. Updated 3 hours ago

Ground ~20,000 ft ~40,000 ft Winds

HEAX

Details ICAO HEAX (ALY)
Name ALEXANDRIA INTL
Region Egypt
Timezone Africa/Cairo (UTC+2.0)
Stats Elevation -6 ft / -2 m (AMSL)
Location 31.183715° 29.947602°
Runways 2
Magnetic Variation 4.459° E

METAR

HEAX 240800Z 19003KT CAVOK 32/14 Q1014 NOSIG

Decode

TAF

TAF HEAX 240515Z 2406/2512 VRB03KT CAVOK BECMG 2406/2408 32009KT 9999 FEW020

Decode

Departure Runways

ID Width Length Bearing (true) Bearing (mag) Surface Threshold Offset Overrun Length
04 148 ft / 45 m 7,225 ft / 2,202 m 44.92° 40.46° Asphalt 0 ft / 0 m 230 ft / 70 m
18 98 ft / 30 m 5,927 ft / 1,807 m 179.99° 175.53° Asphalt 0 ft / 0 m 198 ft / 60 m
22 148 ft / 45 m 7,225 ft / 2,202 m 224.93° 220.47° Asphalt 0 ft / 0 m 268 ft / 82 m
36 98 ft / 30 m 5,927 ft / 1,807 m 359.99° 355.53° Asphalt 0 ft / 0 m 375 ft / 114 m

HEAT

Details ICAO HEAT (ATZ)
Name ASYUT INTL
Region Egypt
Timezone Africa/Cairo (UTC+2.0)
Stats Elevation 772 ft / 235 m (AMSL)
Location 27.046508° 31.011982°
Runways 1
Magnetic Variation 4.178° E

METAR

HEAT 240800Z 02004KT CAVOK 36/13 Q1015 NOSIG

Decode

TAF

Not found

Destination Runways

ID Width Length Bearing (true) Bearing (mag) Surface Threshold Offset Overrun Length
13 148 ft / 45 m 9,910 ft / 3,021 m 129.98° 125.80° Asphalt 0 ft / 0 m 190 ft / 58 m
31 148 ft / 45 m 9,910 ft / 3,021 m 309.99° 305.81° Asphalt 0 ft / 0 m 190 ft / 58 m

Approach Navaids

Runway Type Ident Frequency Range Bearing (true) Bearing (mag) Slope Elevation
31 Localiser IASU 111.30 MHz 18 nm / 33 km 309.98° 305.80° - 744 ft / 227 m (AMSL)
31 Glidescope IASU 111.30 MHz 10 nm / 19 km 309.98° 305.80° 3.00° 815 ft / 248 m (AMSL)
31 DME IASU 111.30 MHz 18 nm / 33 km - - - 815 ft / 248 m (AMSL)